[[{"header":{"parameterUnit":"m.s-1","parameterCategory":1,"la1":30.2991,"la2":30.254,"lo1":-89.0895,"lo2":-89.0444,"dy":0.0017,"dx":0.0017,"nx":28,"ny":28,"refTime":"2024-05-20T21:00:00:Z","depth":0,"parameterNumber":2,"parameterNumberName":"U-component_of_WINDS"},"data":[0,0,0,0,0,0,0,0,0,0,0,0,0,0,0,0,0,0,0,0,0,0,0,0,0,0,0,0,0,0,0,0,0,0,0,0,0,0,0,0,0,0,0,0,0,0,0,0,0,0,0,0,0,0,0,0,0,0,-2.2879,-2.2878,0,-2.2823,-2.2822,-2.2821,-2.2748,-2.2747,-2.2746,-2.2745,-2.2685,-2.2684,-2.2684,0,0,0,0,0,0,0,0,0,0,0,0,0,-2.2922,-2.2922,-2.2879,-2.2878,-2.2878,-2.2823,-2.2822,-2.2821,-2.2748,-2.2747,-2.2745,-2.2744,-2.2685,-2.2685,-2.2684,0,0,0,0,0,0,0,0,0,0,0,0,0,-2.2889,-2.2922,-2.2879,-2.2835,-2.283,-2.2823,-2.2822,-2.2821,-2.2749,-2.2747,-2.2745,-2.2743,-2.2685,-2.2685,-2.2684,-2.2715,0,0,-2.2682,-2.2681,0,0,0,0,0,0,0,0,-2.2891,-2.2887,-2.2842,-2.2838,-2.2833,-2.2791,-2.2815,-2.2785,-2.2749,-2.2779,-2.2745,-2.2742,-2.2721,-2.2718,-2.2711,-2.2712,-2.271,-2.2682,-2.2681,-2.2681,-2.2681,0,0,0,0,0,0,0,-2.2893,-2.2889,-2.2856,-2.2841,-2.2836,-2.2817,-2.281,-2.2809,-2.2761,-2.2777,-2.2771,-2.2766,-2.2718,-2.2712,-2.2709,-2.2709,-2.2682,-2.2681,-2.2681,-2.268,-2.2733,-2.2735,0,0,0,0,0,0,-2.2902,-2.2891,-2.2858,-2.2855,-2.2858,-2.2818,-2.281,-2.2806,-2.2761,-2.2752,-2.2767,-2.2762,-2.2714,-2.271,-2.2707,-2.274,-2.2681,-2.268,-2.268,-2.2732,-2.2734,-2.2736,0,0,0,0,0,0,-2.2903,-2.29,-2.2861,-2.2872,-2.2865,-2.2819,-2.2815,-2.2806,-2.2799,-2.2754,-2.2745,-2.2769,-2.2712,-2.2708,-2.2714,-2.2737,-2.268,-2.2679,-2.2729,-2.2732,-2.2735,-2.2808,0,0,0,0,0,0,-2.2905,-2.2901,-2.2912,-2.2873,-2.2865,-2.2869,-2.2816,-2.2806,-2.2798,-2.2791,-2.2753,-2.2745,-2.2711,-2.2715,-2.2713,-2.2735,-2.2679,-2.2727,-2.2731,-2.2734,-2.2803,-2.2812,-2.2821,0,0,0,0,0,-2.2907,-2.2935,-2.2913,-2.291,-2.2879,-2.2871,-2.2866,-2.2826,-2.28,-2.2811,-2.2783,-2.2746,-2.2735,-2.2716,-2.2713,-2.2735,-2.2725,-2.273,-2.2734,-2.2799,-2.2811,-2.2821,0,0,0,0,0,0,-2.2977,-2.2929,-2.2904,-2.292,-2.29,-2.2858,-2.2871,-2.284,-2.2827,-2.2821,-2.2771,-2.2763,-2.2776,-2.2756,-2.2736,-2.2763,-2.2725,-2.2729,-2.2776,-2.2786,-2.2795,-2.2799,-2.2678,0,0,0,0,0,-2.2995,-2.2993,-2.295,-2.2969,-2.296,-2.2918,-2.2913,-2.2884,-2.2861,-2.2852,-2.2823,-2.2802,-2.2794,-2.2789,-2.2779,-2.28,-2.2791,-2.2814,-2.2823,-2.283,-2.2834,-2.2844,-2.2854,-2.2749,-2.2749,-2.2749,0,0,-2.3031,-2.3004,-2.3006,-2.2982,-2.2963,-2.2962,-2.2911,-2.2912,-2.291,-2.2852,-2.2856,-2.2835,-2.2807,-2.2822,-2.2826,-2.2806,-2.2861,-2.2836,-2.2842,-2.2841,-2.2849,-2.2859,-2.2868,-2.2752,-2.2752,-2.2751,0,0,-2.3096,-2.3076,-2.3089,-2.3071,-2.3044,-2.3015,-2.3019,-2.2982,-2.2966,-2.2969,-2.2926,-2.2923,-2.291,-2.2892,-2.2882,-2.2942,-2.2908,-2.294,-2.2986,-2.2996,-2.3004,-2.3012,-2.3033,-2.3041,-2.2944,-2.2944,-2.2944,0,-2.3144,-2.3141,-2.3099,-2.3103,-2.3094,-2.3042,-2.3055,-2.3039,-2.301,-2.3005,-2.2982,-2.2965,-2.2943,-2.2952,-2.2967,-2.2961,-2.2962,-2.2943,-2.3007,-2.3013,-2.3019,-2.3039,-2.3047,-2.2948,-2.2947,-2.2947,-2.2947,0,-2.3201,-2.32,-2.3214,-2.3187,-2.318,-2.3188,-2.3147,-2.3145,-2.3117,-2.3091,-2.3096,-2.3068,-2.3052,-2.3052,-2.3024,-2.3058,-2.3046,-2.3016,-2.2976,-2.3034,-2.3052,-2.3059,-2.2954,-2.2952,-2.2951,-2.295,0,0,-2.3308,-2.3259,-2.3265,-2.3252,-2.3219,-2.3217,-2.3223,-2.3208,-2.3206,-2.3188,-2.3192,-2.3182,-2.3155,-2.3143,-2.3113,-2.3123,-2.3172,-2.3091,-2.309,-2.3107,-2.3206,-2.3229,-2.3238,-2.315,-2.3151,-2.3152,-2.3209,0,-2.3366,-2.3374,-2.3337,-2.3354,-2.3353,-2.3304,-2.3309,-2.3289,-2.3266,-2.3261,-2.3234,-2.3228,-2.3193,-2.3185,-2.3192,-2.3164,-2.3191,-2.316,-2.3152,-2.3152,-2.316,-2.3247,-2.327,-2.3325,-2.3215,-2.3216,-2.3217,0,-2.3435,-2.3421,-2.3439,-2.3405,-2.3402,-2.3408,-2.3391,-2.3387,-2.3363,-2.3346,-2.3333,-2.3299,-2.3303,-2.3266,-2.327,-2.3249,-2.3244,-2.323,-2.3231,-2.3228,-2.3188,-2.3246,-2.3341,-2.3349,-2.3228,-2.3227,-2.3226,0,-2.3511,-2.3496,-2.3505,-2.3496,-2.3457,-2.3462,-2.3446,-2.342,-2.3414,-2.3399,-2.3394,-2.338,-2.3372,-2.3362,-2.3325,-2.3301,-2.3333,-2.3293,-2.3318,-2.3319,-2.3326,-2.3326,-2.3421,-2.3324,-2.3324,-2.3324,-2.3324,0,-2.3579,-2.3592,-2.3539,-2.3544,-2.3557,-2.3514,-2.3528,-2.3507,-2.3485,-2.3485,-2.3442,-2.3443,-2.3395,-2.3391,-2.3362,-2.337,-2.3366,-2.3352,-2.3344,-2.3355,-2.3357,-2.3351,-2.3346,-2.3326,-2.3325,-2.3325,-2.3325,0,-2.3665,-2.3631,-2.3637,-2.36,-2.359,-2.3602,-2.3569,-2.3573,-2.3547,-2.3548,-2.3545,-2.3505,-2.3498,-2.346,-2.3444,-2.3425,-2.3442,-2.3427,-2.3451,-2.3445,-2.3472,-2.347,-2.3566,-2.3576,-2.3474,-2.3475,-2.3475,0,-2.3711,-2.372,-2.3684,-2.3681,-2.3667,-2.3663,-2.3656,-2.3615,-2.361,-2.3584,-2.3591,-2.358,-2.3569,-2.356,-2.3529,-2.3516,-2.35,-2.3535,-2.3498,-2.3509,-2.35,-2.35,-2.3501,-2.3542,-2.3544,-2.3545,-2.3546,0,-2.3796,-2.3779,-2.3771,-2.3757,-2.375,-2.3737,-2.3722,-2.3722,-2.3676,-2.3673,-2.3665,-2.3657,-2.3641,-2.3631,-2.3614,-2.3596,-2.3564,-2.3558,-2.3563,-2.3574,-2.3587,-2.358,-2.3471,-2.3555,-2.3554,-2.3554,-2.3553,-2.3553,-2.3863,-2.3869,-2.3844,-2.3837,-2.3821,-2.3808,-2.3809,-2.3784,-2.3777,-2.3761,-2.3737,-2.3733,-2.371,-2.3683,-2.3669,-2.3664,-2.3646,-2.3653,-2.3655,-2.3657,-2.3663,-2.3589,-2.3661,-2.3661,-2.366,-2.366,-2.366,0,-2.3946,-2.3928,-2.3922,-2.3901,-2.3896,-2.3866,-2.3848,-2.3845,-2.3842,-2.3823,-2.3814,-2.3805,-2.3796,-2.3765,-2.3752,-2.3754,-2.3739,-2.3752,-2.3751,-2.3748,-2.3681,-2.3677,-2.3765,-2.3765,-2.3765,-2.3765,-2.3765,-2.3765,-2.3988,-2.3996,-2.3976,-2.3975,-2.3957,-2.3953,-2.3945,-2.3932,-2.3917,-2.391,-2.3902,-2.3882,-2.3858,-2.3843,-2.3833,-2.3824,-2.3821,-2.3839,-2.3825,-2.3763,-2.3753,-2.3743,-2.374,-2.3839,-2.3839,-2.3893,-2.3893,-2.3894]},{"header":{"parameterUnit":"m.s-1","parameterCategory":1,"la1":30.2991,"la2":30.254,"lo1":-89.0895,"lo2":-89.0444,"dy":0.0017,"dx":0.0017,"nx":28,"ny":28,"refTime":"2024-05-20T21:00:00:Z","depth":0,"parameterNumber":3,"parameterNumberName":"V-component_of_WINDS"},"data":[0,0,0,0,0,0,0,0,0,0,0,0,0,0,0,0,0,0,0,0,0,0,0,0,0,0,0,0,0,0,0,0,0,0,0,0,0,0,0,0,0,0,0,0,0,0,0,0,0,0,0,0,0,0,0,0,0,0,3.7612,3.7613,0,3.7694,3.7695,3.7696,3.7713,3.7712,3.7712,3.7711,3.7792,3.7794,3.7797,0,0,0,0,0,0,0,0,0,0,0,0,0,3.7469,3.7472,3.7612,3.7613,3.7614,3.7694,3.7695,3.7696,3.7713,3.7712,3.7711,3.7711,3.7791,3.7794,3.7797,0,0,0,0,0,0,0,0,0,0,0,0,0,3.7539,3.7473,3.7612,3.7632,3.7635,3.7693,3.7695,3.7696,3.7713,3.7712,3.7711,3.771,3.779,3.7794,3.7798,3.784,0,0,3.781,3.7812,0,0,0,0,0,0,0,0,3.7535,3.7544,3.7628,3.7631,3.7634,3.7692,3.7674,3.7744,3.7713,3.7683,3.7711,3.771,3.7759,3.7766,3.7783,3.7844,3.7848,3.781,3.7813,3.7814,3.7816,0,0,0,0,0,0,0,3.753,3.7541,3.7644,3.7629,3.7633,3.7637,3.7646,3.7687,3.7725,3.7686,3.7687,3.7697,3.776,3.7779,3.7785,3.7849,3.781,3.7814,3.7816,3.7818,3.795,3.7951,0,0,0,0,0,0,3.7522,3.7537,3.7642,3.7647,3.7581,3.764,3.765,3.7674,3.7725,3.7732,3.7698,3.7697,3.7772,3.778,3.7788,3.7842,3.7814,3.7818,3.7821,3.7949,3.7951,3.7952,0,0,0,0,0,0,3.7519,3.7531,3.7638,3.7592,3.7606,3.7643,3.7671,3.7676,3.7695,3.7734,3.774,3.771,3.7772,3.7782,3.7828,3.7845,3.782,3.7824,3.7948,3.795,3.7951,3.795,0,0,0,0,0,0,3.7515,3.753,3.7547,3.7592,3.7609,3.7678,3.7672,3.7679,3.7702,3.7703,3.7747,3.7753,3.7772,3.7821,3.7832,3.785,3.7827,3.7947,3.7949,3.7951,3.7949,3.7951,3.7954,0,0,0,0,0,3.751,3.7543,3.7548,3.756,3.7631,3.7679,3.7688,3.771,3.7703,3.7721,3.7746,3.7752,3.7841,3.7826,3.7838,3.7857,3.7946,3.7948,3.795,3.7948,3.7951,3.7954,0,0,0,0,0,0,3.7497,3.7549,3.7555,3.7604,3.7637,3.7681,3.7704,3.7712,3.7747,3.7746,3.7771,3.7781,3.7825,3.7846,3.7828,3.7902,3.7893,3.7898,3.7887,3.789,3.7893,3.7887,3.783,0,0,0,0,0,3.75,3.7536,3.7579,3.7618,3.7634,3.7666,3.7688,3.7702,3.7737,3.775,3.7779,3.7811,3.7847,3.787,3.7904,3.7952,3.7962,3.7971,3.7974,3.7975,3.7979,3.8007,3.8011,3.796,3.796,3.796,0,0,3.7507,3.754,3.756,3.7616,3.7643,3.7679,3.7678,3.7715,3.7741,3.7756,3.7801,3.7823,3.7861,3.7908,3.793,3.7926,3.7996,3.7979,3.798,3.7983,3.801,3.8014,3.8019,3.7961,3.7961,3.7961,0,0,3.7537,3.7565,3.7602,3.7629,3.7671,3.7692,3.77,3.7744,3.776,3.7806,3.7817,3.7849,3.7909,3.7936,3.7958,3.7999,3.8006,3.801,3.8023,3.8049,3.8053,3.8057,3.8072,3.8077,3.8013,3.8013,3.8014,0,3.754,3.7595,3.7619,3.7656,3.768,3.7696,3.7733,3.7758,3.7808,3.7824,3.782,3.7897,3.7924,3.7978,3.7988,3.8005,3.8015,3.8005,3.8051,3.8055,3.8059,3.8074,3.8079,3.8014,3.8014,3.8014,3.8014,0,3.7596,3.7634,3.7658,3.7708,3.7735,3.7771,3.78,3.7825,3.7837,3.7858,3.7905,3.7938,3.798,3.7994,3.8005,3.8049,3.8046,3.8046,3.8038,3.8064,3.8078,3.8084,3.8014,3.8014,3.8014,3.8014,0,0,3.7621,3.7684,3.7692,3.7716,3.7763,3.7792,3.7829,3.7872,3.7893,3.7927,3.7959,3.801,3.8011,3.8035,3.805,3.8073,3.8104,3.807,3.8071,3.8076,3.8155,3.8156,3.8162,3.8109,3.811,3.8111,3.8152,0,3.7657,3.7726,3.7749,3.7805,3.784,3.7856,3.7889,3.7921,3.7942,3.7975,3.7998,3.8034,3.8032,3.8047,3.8071,3.8096,3.8121,3.8093,3.8139,3.814,3.8129,3.8169,3.8169,3.8207,3.8158,3.8159,3.816,0,3.7709,3.7745,3.7806,3.7849,3.7865,3.7894,3.7935,3.7966,3.8003,3.8017,3.8045,3.8058,3.8097,3.8087,3.8141,3.8122,3.8142,3.8157,3.8159,3.8164,3.8152,3.8176,3.8219,3.8225,3.8169,3.8168,3.8167,0,3.7721,3.7785,3.783,3.7849,3.7901,3.7921,3.7944,3.798,3.8004,3.8039,3.8056,3.8095,3.8116,3.8146,3.8169,3.8159,3.8222,3.8213,3.8234,3.8234,3.8247,3.8246,3.8294,3.8259,3.8259,3.8259,3.8259,0,3.776,3.7796,3.7837,3.7864,3.7905,3.7931,3.7971,3.7994,3.8026,3.8058,3.8073,3.8103,3.8132,3.8165,3.8183,3.8226,3.8235,3.8247,3.8252,3.8246,3.8245,3.826,3.8258,3.826,3.826,3.826,3.8259,0,3.7781,3.7809,3.7859,3.7905,3.7917,3.7945,3.7984,3.8011,3.8033,3.8073,3.8084,3.8119,3.8159,3.8185,3.8236,3.8248,3.8295,3.8298,3.8282,3.8285,3.8305,3.8303,3.8365,3.8374,3.8332,3.8333,3.8333,0,3.7804,3.7832,3.7881,3.7904,3.7927,3.7964,3.7989,3.8016,3.8041,3.8086,3.8108,3.8149,3.8183,3.8246,3.8275,3.8314,3.8319,3.8338,3.8325,3.8318,3.832,3.8318,3.8321,3.834,3.834,3.8341,3.8341,0,3.7841,3.7854,3.7891,3.7932,3.7962,3.7996,3.803,3.8047,3.808,3.8107,3.8149,3.8176,3.8228,3.8269,3.8311,3.8333,3.8342,3.8345,3.8352,3.8347,3.8337,3.8343,3.8289,3.8343,3.8343,3.8343,3.8343,3.8343,3.7865,3.7891,3.793,3.797,3.7999,3.803,3.8058,3.8084,3.812,3.8165,3.8178,3.8222,3.8258,3.8316,3.8339,3.8373,3.8371,3.8381,3.8383,3.8385,3.8386,3.8331,3.838,3.838,3.838,3.838,3.838,0,3.7904,3.793,3.7966,3.8014,3.8045,3.8052,3.809,3.8116,3.8154,3.8188,3.8222,3.827,3.831,3.8342,3.8383,3.8404,3.841,3.8414,3.8413,3.8418,3.8385,3.8375,3.8409,3.8409,3.8409,3.8409,3.8409,3.8409,3.7928,3.7973,3.7991,3.8051,3.8076,3.812,3.8141,3.817,3.8197,3.825,3.8284,3.8305,3.8339,3.8382,3.8419,3.8427,3.8442,3.8446,3.8455,3.8424,3.842,3.8417,3.8408,3.8448,3.8448,3.8485,3.8486,3.8486]}]]